Вернуться в каталог

COSMOS 2443

GLONASS

АктивенНавигацияMEO
NORAD 33379·PAYLOAD·🇷🇺 Russia

Запущен Sep 25, 2008 с Baikonur Cosmodrome

Loading…

Ближайшие Пролёты (ближайшие 24 часа)

TLE

СвежийSource: Space-Track

Эпоха: Sep 11, 2026, 22:27 UTC

1 33379U 08046B   26254.93580013 -.00000042  00000-0  00000-0 0  9998
2 33379  65.4201 312.0474 0016748 182.5410 176.4611  2.13099665139799

Отслеживайте COSMOS 2443 в реальном времени с AllMySat

Download on the App Store